[[{"header":{"parameterUnit":"m.s-1","parameterCategory":1,"la1":30.2991,"la2":30.254,"lo1":-89.0895,"lo2":-89.0444,"dy":0.0017,"dx":0.0017,"nx":28,"ny":28,"refTime":"2024-10-14T21:00:00:Z","depth":0,"parameterNumber":2,"parameterNumberName":"U-component_of_WINDS"},"data":[0,0,0,0,0,0,0,0,0,0,0,0,0,0,0,0,0,0,0,0,0,0,0,0,0,0,0,0,0,0,0,0,0,0,0,0,0,0,0,0,0,0,0,0,0,0,0,0,0,0,0,0,0,0,0,0,0,0,0.9223,0.9223,0,0.9242,0.9242,0.9243,0.9128,0.9125,0.9122,0.9119,0.9146,0.9149,0.9153,0,0,0,0,0,0,0,0,0,0,0,0,0,0.9094,0.9097,0.9223,0.9223,0.9223,0.9242,0.9242,0.9243,0.9129,0.9125,0.9121,0.9117,0.9144,0.9149,0.9153,0,0,0,0,0,0,0,0,0,0,0,0,0,0.9136,0.9098,0.9223,0.9169,0.9164,0.9242,0.9242,0.9243,0.913,0.9125,0.912,0.9115,0.9143,0.9148,0.9154,0.9287,0,0,0.9171,0.9174,0,0,0,0,0,0,0,0,0.9134,0.9141,0.9176,0.9172,0.9167,0.9178,0.9207,0.9258,0.9131,0.9143,0.9119,0.9113,0.9161,0.9165,0.9179,0.9288,0.929,0.9172,0.9175,0.9178,0.9179,0,0,0,0,0,0,0,0.9131,0.9139,0.923,0.9177,0.9172,0.9146,0.9146,0.9216,0.9179,0.9142,0.9133,0.9137,0.9157,0.9174,0.9179,0.929,0.9172,0.9177,0.918,0.9182,0.9512,0.9517,0,0,0,0,0,0,0.9134,0.9137,0.923,0.9231,0.9138,0.9152,0.9152,0.9179,0.9178,0.9173,0.9141,0.9131,0.9167,0.9173,0.918,0.9337,0.9178,0.9183,0.9186,0.9506,0.9513,0.9519,0,0,0,0,0,0,0.9132,0.9143,0.9229,0.9182,0.9191,0.9159,0.9191,0.9182,0.9199,0.9178,0.9171,0.9164,0.9163,0.9172,0.9261,0.9336,0.9185,0.9191,0.95,0.9508,0.9516,0.9652,0,0,0,0,0,0,0.9129,0.9143,0.9192,0.9184,0.9194,0.9309,0.9195,0.9186,0.9208,0.9196,0.9198,0.9194,0.916,0.9253,0.9267,0.9341,0.9195,0.9493,0.9504,0.9513,0.9641,0.9664,0.9683,0,0,0,0,0,0.9124,0.923,0.9195,0.9207,0.9253,0.9313,0.9319,0.9276,0.9214,0.9264,0.9251,0.9194,0.9325,0.9264,0.9278,0.9355,0.9488,0.9501,0.9512,0.9631,0.9659,0.9683,0,0,0,0,0,0,0.925,0.9228,0.9189,0.9295,0.9307,0.9294,0.9355,0.9307,0.9338,0.9326,0.9273,0.9275,0.9374,0.9373,0.9305,0.9485,0.9397,0.9412,0.9482,0.9508,0.9529,0.9528,0.92,0,0,0,0,0,0.929,0.9338,0.9317,0.9413,0.9421,0.9387,0.9412,0.9377,0.9388,0.9394,0.9386,0.9401,0.9446,0.9477,0.9517,0.964,0.964,0.97,0.9721,0.9739,0.9754,0.9821,0.9848,0.9558,0.9558,0.9558,0,0,0.9373,0.9367,0.9401,0.9438,0.9443,0.9497,0.9392,0.9453,0.9493,0.9403,0.9487,0.9483,0.9496,0.9604,0.9651,0.9606,0.9833,0.9754,0.9768,0.9773,0.9836,0.9863,0.9888,0.9566,0.9565,0.9564,0,0,0.9553,0.9552,0.9632,0.9639,0.9647,0.9625,0.9644,0.9639,0.9632,0.9715,0.965,0.9697,0.9775,0.9788,0.9804,0.999,0.9939,1.0004,1.0117,1.0183,1.0206,1.0226,1.0294,1.0319,1.0019,1.0019,1.0019,0,0.9656,0.9731,0.968,0.9746,0.9765,0.9684,0.9767,0.9777,0.9799,0.9816,0.9765,0.9861,0.9864,0.9974,1.002,1.0035,1.0058,1.0005,1.0206,1.0225,1.0243,1.0308,1.0334,1.0027,1.0026,1.0025,1.0025,0,0.9859,0.9913,0.9977,0.9998,1.0025,1.0099,1.0062,1.0095,1.0059,1.0042,1.013,1.013,1.017,1.0193,1.0159,1.0299,1.0272,1.0214,1.0125,1.028,1.034,1.0364,1.0039,1.0036,1.0033,1.0031,0,0,1.0119,1.0111,1.0135,1.0145,1.0148,1.019,1.0262,1.0298,1.0329,1.0347,1.0408,1.0475,1.0422,1.0442,1.0408,1.0466,1.0616,1.0402,1.0401,1.0443,1.0773,1.0818,1.0847,1.0581,1.0586,1.0589,1.0773,0,1.0295,1.0414,1.0371,1.0494,1.0544,1.0469,1.0531,1.0542,1.0529,1.0572,1.0558,1.0607,1.0533,1.0544,1.0597,1.0586,1.0682,1.0572,1.064,1.0643,1.0641,1.0878,1.0925,1.1098,1.0796,1.08,1.0802,0,1.0517,1.0543,1.067,1.0666,1.0686,1.0743,1.0774,1.0814,1.0826,1.0812,1.0834,1.0789,1.0861,1.0771,1.0871,1.0798,1.0823,1.0822,1.0828,1.0834,1.0733,1.0893,1.1152,1.1179,1.0838,1.0836,1.0833,0,1.0696,1.0763,1.0848,1.0858,1.0855,1.0897,1.0899,1.0904,1.093,1.0958,1.0974,1.1011,1.1032,1.1063,1.103,1.0966,1.1137,1.1043,1.113,1.1131,1.1171,1.1169,1.144,1.1184,1.1184,1.1183,1.1183,0,1.0899,1.0981,1.0928,1.0981,1.1071,1.1022,1.1113,1.1106,1.1113,1.1165,1.1102,1.1153,1.1106,1.1153,1.1128,1.1217,1.1226,1.1219,1.1212,1.1226,1.1227,1.1243,1.1231,1.119,1.1189,1.1187,1.1186,0,1.1115,1.1082,1.1171,1.1161,1.116,1.1227,1.122,1.127,1.1252,1.1319,1.1332,1.1305,1.1358,1.1327,1.1381,1.1364,1.148,1.1456,1.1476,1.147,1.156,1.1553,1.1852,1.189,1.1609,1.1611,1.1614,0,1.1247,1.1308,1.1304,1.1333,1.1338,1.1386,1.1411,1.1366,1.1396,1.1414,1.1463,1.1509,1.1544,1.1632,1.1619,1.1661,1.1638,1.174,1.1644,1.1657,1.1642,1.164,1.1647,1.176,1.1764,1.1766,1.1768,0,1.1486,1.1467,1.1504,1.1538,1.1569,1.1593,1.1613,1.1641,1.1596,1.1632,1.1684,1.1711,1.1766,1.1815,1.185,1.1854,1.1806,1.1798,1.1821,1.1837,1.1847,1.1845,1.1531,1.1792,1.179,1.1788,1.1787,1.1786,1.1665,1.1716,1.1722,1.1767,1.1776,1.1796,1.1842,1.183,1.1872,1.1912,1.1883,1.1945,1.1957,1.2,1.201,1.206,1.2019,1.2052,1.2061,1.207,1.2083,1.1838,1.2066,1.2066,1.2065,1.2064,1.2064,0,1.1902,1.1902,1.1944,1.1972,1.2008,1.1956,1.1975,1.2009,1.2064,1.2078,1.2114,1.2175,1.2222,1.2212,1.2255,1.2297,1.2276,1.2311,1.2308,1.231,1.2116,1.2093,1.2327,1.2327,1.2327,1.2327,1.2327,1.2327,1.203,1.2115,1.2097,1.2187,1.2186,1.2245,1.2261,1.228,1.2291,1.2362,1.2399,1.2392,1.2398,1.2441,1.2483,1.2479,1.2499,1.2542,1.253,1.235,1.2324,1.2299,1.2277,1.2546,1.2546,1.272,1.2722,1.2723]},{"header":{"parameterUnit":"m.s-1","parameterCategory":1,"la1":30.2991,"la2":30.254,"lo1":-89.0895,"lo2":-89.0444,"dy":0.0017,"dx":0.0017,"nx":28,"ny":28,"refTime":"2024-10-14T21:00:00:Z","depth":0,"parameterNumber":3,"parameterNumberName":"V-component_of_WINDS"},"data":[0,0,0,0,0,0,0,0,0,0,0,0,0,0,0,0,0,0,0,0,0,0,0,0,0,0,0,0,0,0,0,0,0,0,0,0,0,0,0,0,0,0,0,0,0,0,0,0,0,0,0,0,0,0,0,0,0,0,-0.99,-0.99,0,-0.9948,-0.9948,-0.9949,-1.004,-1.0042,-1.0043,-1.0045,-1.0089,-1.0089,-1.0089,0,0,0,0,0,0,0,0,0,0,0,0,0,-0.9883,-0.9882,-0.9899,-0.99,-0.9901,-0.9948,-0.9948,-0.9949,-1.0039,-1.0042,-1.0044,-1.0046,-1.009,-1.0089,-1.0088,0,0,0,0,0,0,0,0,0,0,0,0,0,-0.9906,-0.9882,-0.9899,-0.9952,-0.9957,-0.9947,-0.9948,-0.9949,-1.0039,-1.0042,-1.0044,-1.0047,-1.009,-1.0089,-1.0088,-1.003,0,0,-1.0086,-1.0086,0,0,0,0,0,0,0,0,-0.9905,-0.9907,-0.9943,-0.9948,-0.9954,-0.9991,-0.9959,-0.9976,-1.0038,-1.0008,-1.0045,-1.0048,-1.0054,-1.0056,-1.0059,-1.0033,-1.0034,-1.0086,-1.0086,-1.0085,-1.0085,0,0,0,0,0,0,0,-0.9903,-0.9905,-0.9918,-0.9944,-0.995,-0.9972,-0.9978,-0.9962,-1.0015,-1.001,-1.0017,-1.0022,-1.0057,-1.006,-1.0061,-1.0035,-1.0086,-1.0086,-1.0085,-1.0085,-0.9963,-0.996,0,0,0,0,0,0,-0.9894,-0.9903,-0.9917,-0.992,-0.9935,-0.997,-0.9977,-0.9976,-1.0016,-1.0024,-1.002,-1.0026,-1.006,-1.0062,-1.0063,-0.9997,-1.0085,-1.0085,-1.0084,-0.9966,-0.9963,-0.9959,0,0,0,0,0,0,-0.9893,-0.9895,-0.9915,-0.9913,-0.9918,-0.9967,-0.9966,-0.9975,-0.9978,-1.0023,-1.0032,-1.0013,-1.0062,-1.0064,-1.0038,-1.0,-1.0084,-1.0084,-0.9969,-0.9965,-0.9961,-0.9865,0,0,0,0,0,0,-0.9893,-0.9894,-0.9873,-0.9912,-0.9917,-0.989,-0.9963,-0.9975,-0.9977,-0.9986,-1.0019,-1.0026,-1.0064,-1.0039,-1.0037,-1.0001,-1.0083,-0.9973,-0.9967,-0.9962,-0.9872,-0.9858,-0.9847,0,0,0,0,0,-0.9892,-0.9843,-0.9871,-0.9872,-0.9893,-0.9888,-0.989,-0.9936,-0.9974,-0.9953,-0.9981,-1.0025,-1.0005,-1.0035,-1.0035,-0.9997,-0.9975,-0.9969,-0.9963,-0.9878,-0.9861,-0.9847,0,0,0,0,0,0,-0.9795,-0.9849,-0.9881,-0.9844,-0.9861,-0.9903,-0.9878,-0.9917,-0.9922,-0.993,-0.9986,-0.9992,-0.9959,-0.9976,-1.0009,-0.9943,-0.9997,-0.999,-0.9933,-0.9917,-0.9905,-0.99,-1.0083,0,0,0,0,0,-0.977,-0.9763,-0.981,-0.9773,-0.978,-0.9827,-0.9827,-0.9861,-0.988,-0.9887,-0.9914,-0.9929,-0.9927,-0.9923,-0.9923,-0.9876,-0.9884,-0.985,-0.9837,-0.9826,-0.9819,-0.9794,-0.978,-0.9939,-0.9939,-0.9939,0,0,-0.9717,-0.9746,-0.9737,-0.9754,-0.9771,-0.9761,-0.9832,-0.9819,-0.9811,-0.9884,-0.9862,-0.9882,-0.9903,-0.9866,-0.9851,-0.9879,-0.9777,-0.9818,-0.981,-0.9808,-0.9786,-0.9771,-0.9758,-0.9935,-0.9935,-0.9936,0,0,-0.9616,-0.9637,-0.9608,-0.9625,-0.965,-0.9683,-0.9676,-0.9713,-0.9729,-0.9708,-0.9763,-0.9755,-0.9749,-0.9762,-0.9767,-0.9672,-0.9712,-0.9671,-0.9603,-0.9579,-0.9566,-0.9555,-0.952,-0.9507,-0.9664,-0.9664,-0.9664,0,-0.9546,-0.9534,-0.9588,-0.9571,-0.9576,-0.9645,-0.9615,-0.9628,-0.9651,-0.9653,-0.9685,-0.968,-0.9699,-0.9665,-0.9642,-0.9645,-0.9638,-0.9666,-0.9564,-0.9554,-0.9544,-0.9511,-0.9498,-0.9658,-0.9659,-0.966,-0.966,0,-0.9447,-0.9438,-0.9412,-0.9434,-0.9437,-0.9414,-0.9463,-0.9459,-0.9494,-0.9522,-0.9499,-0.9525,-0.9531,-0.9527,-0.9559,-0.9498,-0.9514,-0.9554,-0.9609,-0.9523,-0.9492,-0.948,-0.9651,-0.9653,-0.9654,-0.9656,0,0,-0.9283,-0.9338,-0.9327,-0.9338,-0.9372,-0.9366,-0.9346,-0.9354,-0.9349,-0.9364,-0.9347,-0.9342,-0.938,-0.9386,-0.9421,-0.94,-0.9322,-0.9443,-0.9444,-0.9418,-0.9254,-0.9221,-0.9206,-0.935,-0.9348,-0.9346,-0.9251,0,-0.9187,-0.9156,-0.9205,-0.9163,-0.9155,-0.9221,-0.9203,-0.9222,-0.9248,-0.9244,-0.9274,-0.9268,-0.932,-0.9324,-0.9306,-0.9335,-0.9289,-0.9343,-0.9333,-0.9332,-0.9323,-0.919,-0.9156,-0.9065,-0.924,-0.9238,-0.9236,0,-0.907,-0.908,-0.9038,-0.9076,-0.9074,-0.9057,-0.9069,-0.9065,-0.9088,-0.9109,-0.9117,-0.916,-0.9142,-0.9197,-0.9172,-0.9207,-0.9207,-0.922,-0.9218,-0.9217,-0.9277,-0.9183,-0.9037,-0.9022,-0.9219,-0.922,-0.9221,0,-0.8952,-0.8956,-0.8931,-0.8939,-0.8983,-0.8969,-0.8987,-0.9012,-0.9014,-0.9024,-0.9026,-0.9033,-0.9036,-0.904,-0.9083,-0.912,-0.9052,-0.9112,-0.9067,-0.9066,-0.9047,-0.9047,-0.8897,-0.9051,-0.9051,-0.9051,-0.9052,0,-0.8838,-0.8808,-0.8879,-0.8863,-0.8832,-0.8888,-0.8856,-0.888,-0.8902,-0.8892,-0.895,-0.8938,-0.8997,-0.8992,-0.9026,-0.8999,-0.9,-0.9015,-0.9024,-0.9009,-0.9006,-0.9006,-0.9013,-0.9048,-0.9049,-0.9049,-0.905,0,-0.8699,-0.8745,-0.8722,-0.8767,-0.8778,-0.8753,-0.879,-0.8777,-0.8809,-0.8794,-0.8794,-0.8843,-0.8839,-0.8884,-0.8889,-0.8912,-0.8869,-0.889,-0.8861,-0.8867,-0.8819,-0.8822,-0.8661,-0.8642,-0.881,-0.8809,-0.8808,0,-0.8622,-0.8601,-0.8644,-0.8642,-0.8657,-0.8653,-0.8656,-0.8711,-0.8711,-0.8736,-0.8719,-0.8722,-0.8726,-0.8717,-0.8752,-0.8756,-0.8776,-0.872,-0.8777,-0.8762,-0.8773,-0.8772,-0.877,-0.8707,-0.8705,-0.8703,-0.8702,0,-0.8479,-0.8504,-0.8506,-0.8517,-0.8519,-0.853,-0.8544,-0.8539,-0.8599,-0.8596,-0.8595,-0.8598,-0.8604,-0.8605,-0.8616,-0.8633,-0.8676,-0.8684,-0.8673,-0.8656,-0.8639,-0.8645,-0.8826,-0.8686,-0.8688,-0.8689,-0.869,-0.869,-0.8368,-0.8352,-0.8381,-0.8382,-0.8399,-0.8411,-0.8401,-0.8433,-0.8433,-0.8443,-0.8476,-0.8468,-0.8492,-0.8511,-0.8525,-0.8519,-0.8546,-0.8531,-0.8527,-0.8522,-0.8512,-0.8643,-0.8521,-0.8522,-0.8522,-0.8522,-0.8523,0,-0.8226,-0.8248,-0.8249,-0.8268,-0.8269,-0.8313,-0.8332,-0.8329,-0.8322,-0.8341,-0.8345,-0.8343,-0.8344,-0.838,-0.8385,-0.8373,-0.8393,-0.8373,-0.8373,-0.8375,-0.8488,-0.8496,-0.8357,-0.8357,-0.8357,-0.8357,-0.8357,-0.8357,-0.8152,-0.8129,-0.8156,-0.8142,-0.8164,-0.8158,-0.8165,-0.8176,-0.8192,-0.8187,-0.819,-0.8214,-0.824,-0.8248,-0.8251,-0.8261,-0.8259,-0.8231,-0.8248,-0.8352,-0.8368,-0.8383,-0.839,-0.8231,-0.8231,-0.8136,-0.8135,-0.8134]}]]